• In Hungary
  • List of Countries
  • For 7 days
  • Water Temperature
  • Satellite Maps
  • Weather Map
  • News
  • Weather Widgets
  • user-avatar
    Login

    Hourly Weather Karaganda

    Today, 22 September, Saturday

    Time Temperature Precipitation Wind Pressure Humidity
    00:00 +9°C° 0 mm 6 mps 710 mmHg 58%
    01:00 +9°C° 0 mm 6 mps 710 mmHg 58%
    02:00 +9°C° 0 mm 6 mps 710 mmHg 58%
    03:00 +9°C° 0 mm 6 mps 710 mmHg 59%
    04:00 +8°C° 0 mm 6 mps 710 mmHg 60%
    05:00 +8°C° 0 mm 6 mps 710 mmHg 61%
    06:00 +9°C° 0 mm 6 mps 710 mmHg 58%
    07:00 +9°C° 0 mm 7 mps 710 mmHg 55%
    08:00 +10°C° 0 mm 8 mps 710 mmHg 51%
    09:00 +12°C° 0 mm 8 mps 710 mmHg 46%
    10:00 +13°C° 0 mm 8 mps 710 mmHg 42%
    11:00 +15°C° 0 mm 9 mps 710 mmHg 38%
    12:00 +15°C° 0 mm 9 mps 710 mmHg 37%
    13:00 +16°C° 0 mm 9 mps 710 mmHg 35%
    14:00 +17°C° 0 mm 9 mps 710 mmHg 34%
    15:00 +16°C° 0 mm 8 mps 710 mmHg 35%
    16:00 +16°C° 0 mm 8 mps 710 mmHg 36%
    17:00 +15°C° 0 mm 7 mps 710 mmHg 36%
    18:00 +14°C° 0 mm 6 mps 710 mmHg 40%
    19:00 +13°C° 0 mm 5 mps 710 mmHg 44%
    20:00 +12°C° 0 mm 4 mps 710 mmHg 48%
    21:00 +12°C° 0 mm 4 mps 710 mmHg 52%
    22:00 +11°C° 0 mm 4 mps 710 mmHg 56%
    23:00 +11°C° 0 mm 3 mps 710 mmHg 60%

    Tomorrow, 23 September, Sunday

    Time Temperature Precipitation Wind Pressure Humidity
    00:00 +10°C° 0 mm 3 mps 710 mmHg 63%
    01:00 +10°C° 0 mm 3 mps 710 mmHg 66%
    02:00 +10°C° 0 mm 3 mps 710 mmHg 69%
    03:00 +10°C° 0 mm 3 mps 710 mmHg 72%
    04:00 +9°C° 0 mm 3 mps 710 mmHg 74%
    05:00 +8°C° 0 mm 4 mps 710 mmHg 77%
    06:00 +10°C° 0.2 mm 4 mps 710 mmHg 76%
    07:00 +9°C° 0.2 mm 5 mps 710 mmHg 75%
    08:00 +10°C° 0.2 mm 6 mps 710 mmHg 73%
    09:00 +10°C° 1.1 mm 6 mps 710 mmHg 76%
    10:00 +10°C° 1.1 mm 6 mps 709 mmHg 79%
    11:00 +10°C° 1.1 mm 7 mps 709 mmHg 82%
    12:00 +10°C° 1 mm 6 mps 709 mmHg 82%
    13:00 +10°C° 1 mm 5 mps 709 mmHg 82%
    14:00 +11°C° 1 mm 4 mps 709 mmHg 83%
    15:00 +11°C° 0.2 mm 4 mps 709 mmHg 80%
    16:00 +11°C° 0.2 mm 4 mps 710 mmHg 77%
    17:00 +12°C° 0.2 mm 4 mps 710 mmHg 74%
    18:00 +11°C° 0.1 mm 3 mps 710 mmHg 77%
    19:00 +10°C° 0.1 mm 3 mps 711 mmHg 80%
    20:00 +9°C° 0.1 mm 3 mps 711 mmHg 83%
    21:00 +9°C° 0 mm 2 mps 711 mmHg 85%
    22:00 +8°C° 0 mm 2 mps 711 mmHg 87%
    23:00 +8°C° 0 mm 2 mps 711 mmHg 89%

    Day after tomorrow, 24 September, Monday

    Time Temperature Precipitation Wind Pressure Humidity
    00:00 +7°C° 0 mm 2 mps 711 mmHg 90%
    01:00 +7°C° 0 mm 2 mps 712 mmHg 92%
    02:00 +6°C° 0 mm 2 mps 712 mmHg 93%
    03:00 +6°C° 0 mm 2 mps 712 mmHg 94%
    04:00 +7°C° 0 mm 1 mps 712 mmHg 95%
    05:00 +6°C° 0 mm 1 mps 713 mmHg 95%
    06:00 +7°C° 0 mm 1 mps 713 mmHg 92%
    07:00 +8°C° 0 mm 1 mps 714 mmHg 89%
    08:00 +9°C° 0 mm 1 mps 714 mmHg 85%
    09:00 +9°C° 0 mm 2 mps 714 mmHg 80%
    10:00 +10°C° 0 mm 2 mps 714 mmHg 74%
    11:00 +12°C° 0 mm 2 mps 714 mmHg 69%
    12:00 +11°C° 0 mm 3 mps 715 mmHg 66%
    13:00 +11°C° 0 mm 3 mps 715 mmHg 63%
    14:00 +12°C° 0 mm 3 mps 715 mmHg 60%
    15:00 +12°C° 0 mm 3 mps 715 mmHg 61%
    16:00 +11°C° 0 mm 3 mps 715 mmHg 62%
    17:00 +11°C° 0 mm 3 mps 715 mmHg 62%
    18:00 +10°C° 0 mm 2 mps 716 mmHg 68%
    19:00 +9°C° 0 mm 2 mps 716 mmHg 73%
    20:00 +9°C° 0 mm 1 mps 716 mmHg 78%
    21:00 +9°C° 0 mm 1 mps 716 mmHg 79%
    22:00 +8°C° 0 mm 1 mps 716 mmHg 80%
    23:00 +8°C° 0 mm 1 mps 717 mmHg 81%

    25 September, Tuesday

    Time Temperature Precipitation Wind Pressure Humidity
    00:00 +8°C° 0 mm 1 mps 717 mmHg 82%
    01:00 +8°C° 0 mm 1 mps 717 mmHg 83%
    02:00 +8°C° 0 mm 1 mps 717 mmHg 84%
    03:00 +7°C° 0 mm 1 mps 717 mmHg 84%
    04:00 +7°C° 0 mm 1 mps 717 mmHg 85%
    05:00 +7°C° 0 mm 1 mps 717 mmHg 86%
    06:00 +8°C° 0 mm 1 mps 718 mmHg 80%
    07:00 +9°C° 0 mm 1 mps 718 mmHg 74%
    08:00 +11°C° 0 mm 1 mps 718 mmHg 68%
    09:00 +12°C° 0 mm 1 mps 718 mmHg 63%
    10:00 +14°C° 0 mm 1 mps 719 mmHg 57%
    11:00 +15°C° 0 mm 1 mps 719 mmHg 51%
    12:00 +16°C° 0 mm 1 mps 719 mmHg 48%
    13:00 +18°C° 0 mm 1 mps 719 mmHg 46%
    14:00 +19°C° 0 mm 1 mps 718 mmHg 43%
    15:00 +19°C° 0 mm 1 mps 718 mmHg 43%
    16:00 +19°C° 0 mm 1 mps 718 mmHg 44%
    17:00 +19°C° 0 mm 1 mps 718 mmHg 45%
    18:00 +18°C° 0 mm 1 mps 718 mmHg 49%
    19:00 +15°C° 0 mm 2 mps 718 mmHg 53%
    20:00 +14°C° 0 mm 2 mps 719 mmHg 57%
    21:00 +14°C° 0 mm 2 mps 718 mmHg 59%
    22:00 +12°C° 0 mm 3 mps 718 mmHg 61%
    23:00 +12°C° 0 mm 3 mps 718 mmHg 63%

    26 September, Wednesday

    Time Temperature Precipitation Wind Pressure Humidity
    00:00 +11°C° 0 mm 3 mps 718 mmHg 64%
    01:00 +11°C° 0 mm 3 mps 718 mmHg 65%
    02:00 +11°C° 0 mm 3 mps 718 mmHg 67%
    03:00 +12°C° 0 mm 2 mps 718 mmHg 68%
    04:00 +10°C° 0 mm 2 mps 718 mmHg 69%
    05:00 +10°C° 0 mm 2 mps 718 mmHg 70%
    06:00 +12°C° 0 mm 2 mps 719 mmHg 66%
    07:00 +13°C° 0 mm 2 mps 719 mmHg 62%
    08:00 +14°C° 0 mm 2 mps 719 mmHg 59%
    09:00 +16°C° 0 mm 3 mps 719 mmHg 52%
    10:00 +18°C° 0 mm 3 mps 719 mmHg 46%
    11:00 +20°C° 0 mm 3 mps 719 mmHg 39%
    12:00 +21°C° 0 mm 3 mps 719 mmHg 37%
    13:00 +21°C° 0 mm 4 mps 719 mmHg 34%
    14:00 +22°C° 0 mm 4 mps 718 mmHg 31%
    15:00 +22°C° 0 mm 4 mps 718 mmHg 33%
    16:00 +21°C° 0 mm 4 mps 718 mmHg 35%
    17:00 +21°C° 0 mm 3 mps 718 mmHg 37%
    18:00 +20°C° 0 mm 4 mps 718 mmHg 41%
    19:00 +18°C° 0 mm 4 mps 718 mmHg 45%
    20:00 +17°C° 0 mm 4 mps 718 mmHg 49%
    21:00 +15°C° 0 mm 4 mps 718 mmHg 51%
    22:00 +14°C° 0 mm 4 mps 717 mmHg 53%
    23:00 +14°C° 0 mm 4 mps 717 mmHg 55%

    27 September, Thursday

    Time Temperature Precipitation Wind Pressure Humidity
    00:00 +13°C° 0 mm 4 mps 717 mmHg 56%
    01:00 +13°C° 0 mm 4 mps 717 mmHg 57%
    02:00 +12°C° 0 mm 3 mps 717 mmHg 59%
    03:00 +12°C° 0 mm 3 mps 717 mmHg 60%
    04:00 +11°C° 0 mm 3 mps 716 mmHg 60%
    05:00 +11°C° 0 mm 3 mps 716 mmHg 61%
    06:00 +12°C° 0 mm 4 mps 716 mmHg 58%
    07:00 +13°C° 0 mm 5 mps 716 mmHg 54%
    08:00 +14°C° 0 mm 5 mps 716 mmHg 50%
    09:00 +16°C° 0 mm 5 mps 716 mmHg 44%
    10:00 +19°C° 0 mm 5 mps 716 mmHg 37%
    11:00 +21°C° 0 mm 6 mps 716 mmHg 31%
    12:00 +22°C° 0 mm 5 mps 715 mmHg 28%
    13:00 +23°C° 0 mm 5 mps 715 mmHg 26%
    14:00 +23°C° 0 mm 5 mps 714 mmHg 23%
    15:00 +23°C° 0 mm 4 mps 714 mmHg 25%
    16:00 +22°C° 0 mm 3 mps 714 mmHg 27%
    17:00 +23°C° 0 mm 2 mps 713 mmHg 29%
    18:00 +20°C° 0 mm 3 mps 713 mmHg 32%
    19:00 +18°C° 0 mm 3 mps 713 mmHg 34%
    20:00 +17°C° 0 mm 3 mps 713 mmHg 36%
    21:00 +16°C° 0 mm 3 mps 713 mmHg 37%
    22:00 +16°C° 0 mm 3 mps 712 mmHg 38%
    23:00 +15°C° 0 mm 2 mps 712 mmHg 39%
    Show more